Weather History for Toccoa Rg Letourneau Field, T, GA

Change the Weather History Date:

Monday, December 24, 2012

  Actual Average Record
Temperature  
Mean Temperature 46 °F -  
Max Temperature 48 °F 52 °F 48 °F (2013)
Min Temperature 43 °F 33 °F 31 °F (2013)
Degree Days  
Heating Degree Days 20    
Moisture  
Dew Point 44 °F    
Average Humidity 91    
Maximum Humidity 100    
Minimum Humidity 62    
Precipitation  
Precipitation 0.00 in - - ()
Sea Level Pressure  
Sea Level Pressure 29.95 in    
Wind  
Wind Speed 1 mph ()    
Max Wind Speed 5 mph    
Max Gust Speed -    
Visibility 4.4 miles    
Events Fog , Rain    
Averages and records for this station are not official NWS values.
T = Trace of Precipitation, MM = Missing Value Source: Averaged Metar Reports

Daily Weather History Graph

Daily Weather History Graph

Search for Another Location

Airport:

Trip Planner

Search our weather history database for the weather conditions in past years. The results will help you decide how hot, cold, wet, or windy it might be!

Date:

Astronomy

Dec. 24, 2012 Rise Set
Actual Time 7:37 AM EST 5:28 PM EST
Civil Twilight 7:09 AM EST 5:56 PM EST
Nautical Twilight 6:38 AM EST 6:27 PM EST
Astronomical Twilight 6:07 AM EST 6:58 PM EST
Moon 2:52 PM EST (12/24) 4:18 AM EST (12/24)
Length of Visible Light 10h 46m
Length of Day
9h 50m
Waxing Gibbous, 88% of the Moon is Illuminated
Dec 24
Waxing Gibbous
Dec 28
Full
Jan 4
Last Quarter
Jan 11
New
Jan 18
First Quarter

Hourly Weather History & Observations

Time (EST) Temp. Windchill Dew Point Humidity Pressure Visibility Wind Dir Wind Speed Gust Speed Precip Events Conditions
12:15 AM 48.2 °F - 37.4 °F 66% 30.05 in 10.0 mi SW 3.5 mph - N/A   Overcast
12:35 AM 48.6 °F - 36.5 °F 63% 30.04 in 10.0 mi Calm Calm - N/A   Mostly Cloudy
12:55 AM 47.7 °F - 37.4 °F 68% 30.04 in 10.0 mi Calm Calm - N/A   Overcast
1:15 AM 48.6 °F - 36.7 °F 64% 30.03 in 10.0 mi Calm Calm - N/A   Overcast
1:35 AM 47.7 °F - 36.7 °F 66% 30.02 in 10.0 mi Calm Calm - N/A   Overcast
1:55 AM 48.0 °F - 36.1 °F 63% 30.02 in 10.0 mi Calm Calm - N/A   Overcast
2:15 AM 47.5 °F - 36.9 °F 67% 30.02 in 10.0 mi SW 3.5 mph - N/A   Overcast
2:35 AM 48.2 °F - 36.3 °F 63% 30.01 in 10.0 mi South 3.5 mph - N/A   Overcast
2:55 AM 48.2 °F - 36.1 °F 63% 30.01 in 10.0 mi Calm Calm - N/A   Overcast
3:15 AM 48.2 °F - 36.1 °F 63% 30.01 in 10.0 mi SW 3.5 mph - N/A   Overcast
3:35 AM 48.4 °F - 36.0 °F 62% 30.00 in 10.0 mi Calm Calm - N/A   Overcast
3:55 AM 48.2 °F - 37.2 °F 66% 29.99 in 10.0 mi Calm Calm - N/A   Overcast
4:15 AM 48.2 °F - 36.1 °F 63% 29.99 in 10.0 mi Calm Calm - N/A Rain Light Rain
4:35 AM 48.2 °F - 36.5 °F 64% 29.99 in 10.0 mi Calm Calm - N/A   Overcast
4:55 AM 48.2 °F - 36.3 °F 63% 29.99 in 10.0 mi Calm Calm - N/A   Overcast
5:15 AM 46.9 °F - 38.5 °F 72% 29.98 in 7.0 mi Calm Calm - N/A Rain Rain
5:35 AM 44.8 °F - 41.7 °F 89% 29.99 in 4.0 mi Calm Calm - N/A Rain Rain
5:55 AM 44.2 °F - 42.3 °F 93% 29.98 in 5.0 mi Calm Calm - N/A Rain Rain
6:15 AM 44.1 °F - 43.2 °F 97% 29.98 in 4.0 mi Calm Calm - N/A Rain Rain
6:35 AM 43.9 °F - 43.0 °F 97% 29.98 in 2.0 mi Calm Calm - N/A Rain Light Rain
6:55 AM 43.9 °F - 43.2 °F 97% 29.97 in 3.0 mi Calm Calm - N/A Rain Rain
7:15 AM 43.7 °F - 43.0 °F 97% 29.97 in 5.0 mi Calm Calm - N/A Rain Rain
7:35 AM 43.9 °F - 43.3 °F 98% 29.97 in 10.0 mi Calm Calm - N/A   Overcast
7:55 AM 43.7 °F - 43.2 °F 98% 29.97 in 2.5 mi Calm Calm - N/A Rain Rain
8:15 AM 43.7 °F - 43.2 °F 98% 29.96 in 1.2 mi Calm Calm - N/A   Unknown
8:35 AM 43.7 °F - 43.2 °F 98% 29.94 in 1.0 mi Calm Calm - N/A   Unknown
8:55 AM 43.5 °F - 43.3 °F 99% 29.96 in 0.8 mi Calm Calm - N/A Rain Light Rain
9:15 AM 43.7 °F - 43.5 °F 99% 29.96 in 1.8 mi Calm Calm - N/A Rain Light Rain
9:35 AM 43.9 °F - 43.9 °F 100% 29.96 in 1.2 mi Calm Calm - N/A Rain Light Rain
9:55 AM 43.7 °F - 43.7 °F 100% 29.96 in 1.2 mi Calm Calm - N/A Rain Rain
10:15 AM 43.7 °F - 43.7 °F 100% 29.96 in 4.0 mi Calm Calm - N/A   Overcast
10:35 AM 43.9 °F - 43.9 °F 100% 29.95 in 2.5 mi Calm Calm - N/A   Light Drizzle
10:55 AM 44.2 °F - 44.2 °F 100% 29.95 in 3.0 mi Calm Calm - N/A   Overcast
11:15 AM 44.2 °F - 44.2 °F 100% 29.95 in 4.0 mi Calm Calm - N/A Rain Light Rain
11:35 AM 44.6 °F 42.2 °F 44.6 °F 100% 29.95 in 3.0 mi NNE 4.6 mph - N/A Rain Light Rain
11:55 AM 44.4 °F 42.0 °F 44.4 °F 100% 29.94 in 1.8 mi NE 4.6 mph - N/A Rain Light Rain
12:15 PM 44.6 °F - 44.6 °F 100% 29.94 in 0.8 mi Calm Calm - N/A Rain Light Rain
12:35 PM 44.8 °F - 44.8 °F 100% 29.92 in 2.5 mi Calm Calm - N/A Rain Light Rain
12:55 PM 45.0 °F - 45.0 °F 100% 29.91 in 5.0 mi Calm Calm - N/A   Light Drizzle
1:15 PM 45.3 °F - 45.3 °F 100% 29.90 in 7.0 mi Calm Calm - N/A Rain Rain
1:35 PM 45.5 °F - 45.5 °F 100% 29.89 in 7.0 mi Calm Calm - N/A   Overcast
1:55 PM 45.9 °F - 45.9 °F 100% 29.89 in 10.0 mi Calm Calm - N/A   Overcast
2:15 PM 45.9 °F - 45.9 °F 100% 29.88 in 2.5 mi Calm Calm - N/A   Light Drizzle
2:35 PM 46.4 °F - 46.0 °F 99% 29.88 in 7.0 mi Calm Calm - N/A   Overcast
2:55 PM 46.8 °F - 46.8 °F 100% 29.88 in 5.0 mi Calm Calm - N/A   Overcast
3:15 PM 46.9 °F - 46.8 °F 99% 29.87 in 10.0 mi Calm Calm - N/A   Overcast
3:35 PM 47.7 °F - 47.3 °F 99% 29.88 in 10.0 mi Calm Calm - N/A   Overcast
3:55 PM 47.5 °F - 46.9 °F 98% 29.89 in 7.0 mi Calm Calm - N/A   Overcast
4:15 PM 47.7 °F - 47.3 °F 99% 29.89 in 7.0 mi NNE 3.5 mph - N/A   Overcast
4:35 PM 47.3 °F - 46.8 °F 98% 29.89 in 1.0 mi Calm Calm - N/A   Overcast
4:55 PM 47.1 °F - 47.1 °F 100% 29.89 in 0.8 mi Calm Calm - N/A   Overcast
5:15 PM 47.3 °F - 47.3 °F 100% 29.92 in 1.0 mi North 4.6 mph - N/A   Overcast
5:35 PM 47.3 °F - 47.3 °F 100% 29.92 in 1.2 mi Calm Calm - N/A   Overcast
5:55 PM 47.3 °F - 47.3 °F 100% 29.90 in 0.5 mi Calm Calm - N/A Fog Fog
6:15 PM 47.3 °F - 47.3 °F 100% 29.90 in 0.8 mi Calm Calm - N/A   Overcast
6:35 PM 47.3 °F - 47.3 °F 100% 29.90 in 0.5 mi Calm Calm - N/A Fog Fog
6:55 PM 47.3 °F - 47.3 °F 100% 29.91 in 0.2 mi Calm Calm - N/A Fog Fog
7:15 PM 47.3 °F - 47.3 °F 100% 29.92 in 0.2 mi Calm Calm - N/A Fog Fog
7:35 PM 47.3 °F - 47.3 °F 100% 29.94 in 0.2 mi Calm Calm - N/A Fog Fog
7:55 PM 47.3 °F - 47.3 °F 100% 29.94 in 0.2 mi Calm Calm - N/A Fog Fog
8:15 PM 47.5 °F - 47.5 °F 100% 29.94 in 0.5 mi Calm Calm - N/A Fog Fog
8:35 PM 47.7 °F - 47.7 °F 100% 29.94 in 0.8 mi Calm Calm - N/A   Overcast
8:55 PM 47.8 °F - 47.8 °F 100% 29.94 in 0.5 mi Calm Calm - N/A Fog Fog
9:15 PM 47.7 °F - 47.7 °F 100% 29.94 in 0.2 mi Calm Calm - N/A Fog Fog
9:35 PM 47.8 °F - 47.8 °F 100% 29.95 in 0.5 mi Calm Calm - N/A Fog Fog
9:55 PM 47.8 °F - 47.8 °F 100% 29.95 in 0.8 mi Calm Calm - N/A   Overcast
10:15 PM 48.0 °F - 48.0 °F 100% 29.95 in 1.0 mi Calm Calm - N/A   Overcast
10:35 PM 48.2 °F - 48.2 °F 100% 29.96 in 1.0 mi Calm Calm - N/A   Overcast
10:55 PM 48.4 °F - 48.4 °F 100% 29.96 in 1.2 mi Calm Calm - N/A   Overcast
11:15 PM 47.8 °F - 47.8 °F 100% 29.96 in 0.8 mi Calm Calm - N/A   Overcast
11:35 PM 48.2 °F - 48.2 °F 100% 29.96 in 1.2 mi Calm Calm - N/A   Overcast
11:55 PM 48.4 °F - 48.4 °F 100% 29.95 in 1.2 mi Calm Calm - N/A   Overcast